{"data":{"norad_id":54372,"intl_designator":"2022-160A","name":"YAOGAN-36 03A","alt_names":[],"object_type":"PAYLOAD","status":"ACTIVE","operator":null,"country":"PRC","launch_date":"2022-11-27","launch_site_code":"XICLF","launch_vehicle":null,"mission":null,"orbit_class":"UNKNOWN","rcs_meters":null,"size_class":null,"mass_kg":null,"dimensions":null,"purposes":[],"wikipedia_slug":null,"has_3d_model":false,"image_url":null,"decayed_at":null,"tle_current":{"epoch":"2026-09-21T21:31:32.215296Z","epoch_age_seconds":41644,"freshness":"FRESH","line1":"1 54372U 22160A   26264.89690064  .00010390  00000+0  27726-3 0  9993","line2":"2 54372  34.9996  62.5439 0002216  98.3392 261.7579 15.37316491213099","mean_motion":15.37316491,"eccentricity":0.0002216,"inclination_deg":34.9996,"raan_deg":62.5439,"arg_perigee_deg":98.3392,"mean_anomaly_deg":261.7579,"bstar":0.00027726,"rev_number":21309,"period_min":93.669716576273,"perigee_km":452.53450919546,"apogee_km":455.56253381859,"semimajor_km":6832.185521507,"source":"CELESTRAK","updated_at":"2026-09-22T09:00:25.144817Z"}}}